Lawton, OK

9:21 AM CDT on March 29, 2017 (GMT -0500)
Lawton-Fort Sill Regional

Weather History for KLAW - May, 2014

Change the Weather History Date:

Thursday, May 8, 2014

  Actual Average Record
Temperature  
Mean Temperature 74 °F -  
Max Temperature 87 °F 80 °F 100 °F (2011)
Min Temperature 62 °F 55 °F 39 °F (1984)
Cooling Degree Days 9    
Growing Degree Days 24 (Base 50)    
Moisture  
Dew Point 60 °F    
Average Humidity 70    
Maximum Humidity 94    
Minimum Humidity 20    
Precipitation  
Precipitation 0.28 in - - ()
Sea Level Pressure  
Sea Level Pressure 29.73 in    
Wind  
Wind Speed 12 mph (South)    
Max Wind Speed 18 mph    
Max Gust Speed 26 mph    
Visibility 9 miles    
Events Rain , Thunderstorm    
Averages and records for this station are not official NWS values.
T = Trace of Precipitation, MM = Missing Value Source: NWS Daily Summary

Daily Weather History Graph

Daily Weather History Graph

Search for Another Location

Airport or City:

Trip Planner

Search our weather history database for the weather conditions in past years. The results will help you decide how hot, cold, wet, or windy it might be!

Date:

Astronomy

May. 08, 2014 Rise Set
Actual Time 6:36 AM CDT 8:24 PM CDT
Civil Twilight 6:09 AM CDT 8:51 PM CDT
Nautical Twilight 5:36 AM CDT 9:24 PM CDT
Astronomical Twilight 5:01 AM CDT 9:59 PM CDT
Moon 2:40 PM CDT (5/8) 2:53 AM CDT (5/8)
Length of Visible Light 14h 42m
Length of Day
13h 47m
Waxing Gibbous, 65% of the Moon is Illuminated
May 8
Waxing Gibbous
May 14
Full
May 21
Last Quarter
May 28
New
Jun 5
First Quarter

Hourly Weather History & Observations

Time (CDT) Temp. Heat Index Dew Point Humidity Pressure Visibility Wind Dir Wind Speed Gust Speed Precip Events Conditions
12:53 AM 75.0 °F - 61.0 °F 62% 29.65 in 10.0 mi SSW 17.3 mph 24.2 mph N/A   Clear
1:53 AM 72.0 °F - 55.0 °F 55% 29.67 in 10.0 mi South 16.1 mph - N/A   Partly Cloudy
2:53 AM 72.0 °F - 53.1 °F 51% 29.62 in 10.0 mi SSE 9.2 mph - N/A   Clear
3:53 AM 70.0 °F - 57.9 °F 65% 29.72 in 10.0 mi SSW 9.2 mph - N/A Thunderstorm Thunderstorm
4:40 AM 66.2 °F - 60.8 °F 83% 29.80 in 10.0 mi West 11.5 mph 18.4 mph 0.01 in Rain Light Rain
4:53 AM 64.9 °F - 61.0 °F 87% 29.75 in 10.0 mi West 10.4 mph - 0.01 in   Overcast
5:53 AM 64.9 °F - 61.0 °F 87% 29.77 in 10.0 mi West 11.5 mph 18.4 mph 0.06 in Rain , Thunderstorm Light Rain
6:25 AM 62.6 °F - 60.8 °F 94% 29.80 in 3.0 mi NNW 3.5 mph - 0.09 in Rain Heavy Rain
6:53 AM 63.0 °F - 61.0 °F 93% 29.75 in 7.0 mi ENE 9.2 mph - 0.16 in Rain Rain
7:53 AM 64.0 °F - 57.9 °F 80% 29.72 in 10.0 mi SE 8.1 mph - 0.05 in   Partly Cloudy
8:53 AM 63.0 °F - 60.1 °F 90% 29.75 in 10.0 mi SE 6.9 mph - N/A   Clear
9:53 AM 64.9 °F - 61.0 °F 87% 29.77 in 10.0 mi South 11.5 mph - N/A   Partly Cloudy
10:35 AM 66.2 °F - 60.8 °F 83% 29.80 in 10.0 mi South 11.5 mph 20.7 mph N/A   Mostly Cloudy
10:44 AM 68.0 °F - 60.8 °F 78% 29.80 in 10.0 mi South 12.7 mph 19.6 mph N/A   Mostly Cloudy
10:53 AM 69.1 °F - 61.0 °F 75% 29.77 in 10.0 mi South 12.7 mph - N/A   Mostly Cloudy
11:17 AM 69.8 °F - 60.8 °F 73% 29.79 in 10.0 mi SSW 9.2 mph 18.4 mph N/A   Scattered Clouds
12:53 PM 75.9 °F - 62.1 °F 62% 29.75 in 10.0 mi SSW 12.7 mph 17.3 mph N/A   Partly Cloudy
1:53 PM 80.1 °F 81.1 °F 61.0 °F 52% 29.74 in 10.0 mi SSW 9.2 mph 17.3 mph N/A   Partly Cloudy
2:53 PM 84.0 °F 84.4 °F 61.0 °F 46% 29.71 in 10.0 mi SW 10.4 mph - N/A   Clear
4:53 PM 86.0 °F - 43.0 °F 22% 29.67 in 10.0 mi SSW 8.1 mph - N/A   Clear
5:53 PM 86.0 °F - 41.0 °F 20% 29.68 in 10.0 mi South 6.9 mph - N/A   Clear
6:53 PM 84.9 °F - 43.0 °F 23% 29.67 in 10.0 mi SSE 4.6 mph - N/A   Clear
7:53 PM 77.0 °F - 66.9 °F 71% 29.68 in 10.0 mi SE 17.3 mph - N/A   Clear
8:53 PM 73.0 °F - 66.9 °F 81% 29.72 in 10.0 mi SE 12.7 mph - N/A   Clear
9:37 PM 73.4 °F - 68.0 °F 83% 29.75 in 8.0 mi SE 16.1 mph - N/A   Mostly Cloudy
9:53 PM 73.0 °F - 66.9 °F 81% 29.73 in 7.0 mi SE 18.4 mph 26.5 mph N/A   Mostly Cloudy
10:14 PM 71.6 °F - 66.2 °F 83% 29.76 in 7.0 mi SE 16.1 mph - N/A   Partly Cloudy
10:53 PM 70.0 °F - 64.9 °F 84% 29.75 in 9.0 mi SE 8.1 mph - N/A   Clear
11:53 PM 66.0 °F - 62.1 °F 87% 29.76 in 10.0 mi Calm Calm - N/A   Clear